This is the latest recevied weather packets stored in our database for station/object DC1NF-7. If no packets are shown the sender has not sent any weather packets the latest 10 day(s).
| Time | Temp. | Humidity | Pressure | Rain* | Wind** | Luminosity | Snow |
|---|---|---|---|---|---|---|---|
| 1777226136 | 15° C | 36% | 1022.5 hPa | 0 mm | - | 25 W/m² | - |
| 1777225532 | 15° C | 35% | 1022.5 hPa | 0 mm | - | 32 W/m² | - |
| 1777224936 | 15° C | 34% | 1022.4 hPa | 0 mm | - | 50 W/m² | - |
| 1777224325 | 15.56° C | 34% | 1022.6 hPa | 0 mm | - | 51 W/m² | - |
| 1777223722 | 16.11° C | 32% | 1022.5 hPa | 0 mm | - | 80 W/m² | - |
| 1777223122 | 16.11° C | 32% | 1022.5 hPa | 0 mm | - | 99 W/m² | - |
| 1777222575 | 16.11° C | 30% | 1022.5 hPa | 0 mm | - | 131 W/m² | - |
| 1777221970 | 16.11° C | 30% | 1022.5 hPa | 0 mm | - | 155 W/m² | - |
| 1777221367 | 16.67° C | 30% | 1022.6 hPa | 0 mm | - | 172 W/m² | - |
| 1777220769 | 16.11° C | 31% | 1022.6 hPa | 0 mm | - | 188 W/m² | - |
| 1777220160 | 16.11° C | 31% | 1022.8 hPa | 0 mm | - | 219 W/m² | - |
| 1777219557 | 16.11° C | 32% | 1022.9 hPa | 0 mm | - | 268 W/m² | - |
| 1777218957 | 16.11° C | 33% | 1022.8 hPa | 0 mm | - | 328 W/m² | - |
| 1777218351 | 15.56° C | 35% | 1022.8 hPa | 0 mm | - | 207 W/m² | - |
| 1777217747 | 15.56° C | 35% | 1022.8 hPa | 0 mm | - | 172 W/m² | - |
| 1777217143 | 15.56° C | 34% | 1022.9 hPa | 0 mm | - | 186 W/m² | - |
| 1777216541 | 15.56° C | 32% | 1023 hPa | 0 mm | - | 262 W/m² | - |
| 1777215938 | 15.56° C | 32% | 1023.1 hPa | 0 mm | - | 285 W/m² | - |
| 1777215332 | 15.56° C | 33% | 1023 hPa | 0 mm | - | 213 W/m² | - |
| 1777214728 | 15.56° C | 35% | 1023 hPa | 0 mm | - | 187 W/m² | - |
| 1777214127 | 16.67° C | 33% | 1023 hPa | 0 mm | - | 436 W/m² | - |
| 1777213523 | 16.11° C | 35% | 1023 hPa | 0 mm | - | 578 W/m² | - |
| 1777212916 | 16.11° C | 36% | 1023.1 hPa | 0 mm | - | 659 W/m² | - |
| 1777212375 | 16.11° C | 36% | 1023.2 hPa | 0 mm | - | 372 W/m² | - |
| 1777211773 | 16.11° C | 38% | 1023.2 hPa | 0 mm | - | 480 W/m² | - |
* Rain latest hour (hover to see other rain measurements)
** Current wind speed in m/s (hover to see current wind gust speed)